Simultaneous Nadir Overpasses (SNOs) Predictions

Prediction of SNOs between METOP-A and TERRA Satellite Orbit:

Table of predicted SNOs for the next 14.0 days since TLE Epoch: 5/9/2015
Index Date (METOP-A) Time (METOP-A) Lat,Lon (METOP-A) SZA (METOP-A ) Date (TERRA) Time (TERRA) Lat,Lon (TERRA) SZA (TERRA ) Distance(km) Time Diff (sec)
1 05/11/2015 05:19:58 81.34, 147.87 66.60 05/11/2015 05:21:00 81.35, 147.96 66.65 1.71 62
2 05/11/2015 06:10:38 -81.34, -44.49 113.38 05/11/2015 06:10:27 -81.34, -44.50 113.38 0.16 11
3 05/14/2015 00:54:19 81.34,-145.51 65.93 05/14/2015 00:55:18 81.35,-145.64 65.94 2.27 59
4 05/14/2015 01:45:00 -81.34, 21.75 114.10 05/14/2015 01:44:45 -81.34, 21.93 114.08 3.05 15
5 05/16/2015 20:28:41 81.34, -79.34 65.23 05/16/2015 20:29:36 81.33, -79.44 65.25 1.66 55
6 05/1
